Location: Brno
(49.2000°N, 16.6330°E)
Time: 10:24:21
(UTC+02:00)

Explorer 11/Cluster Stage 4 - All Passes

Search period start: 24 July 2021 00:00
Search period end: 03 August 2021 00:00
Orbit: 467 x 1257 km, 28.8° (Epoch: 23 July)

Date Brightness Start Highest point End Pass type
(mag) Time Alt. Az. Time Alt. Az. Time Alt. Az.
26 Jul - 13:09:09 10° S 13:10:59 11° S 13:12:44 10° SSE daylight
26 Jul - 14:57:22 10° SSW 14:58:25 10° S 14:59:25 10° S daylight
27 Jul - 12:56:50 10° SSW 12:59:36 12° S 13:02:13 10° SSE daylight
27 Jul - 14:45:24 10° SSW 14:47:05 11° S 14:48:40 10° S daylight
28 Jul - 12:44:49 10° SSW 12:48:13 13° S 12:51:25 10° SSE daylight
28 Jul - 14:33:40 10° SSW 14:35:42 11° SSW 14:37:39 10° S daylight
29 Jul - 10:48:17 10° S 10:49:10 10° SSE 10:50:02 10° SSE daylight
29 Jul - 12:32:57 10° SSW 12:36:48 14° S 12:40:26 10° SSE daylight
29 Jul - 14:22:05 10° SSW 14:24:19 12° SSW 14:26:27 10° S daylight
30 Jul - 10:35:18 10° S 10:37:42 11° SSE 10:40:04 10° SSE daylight
30 Jul - 12:21:11 10° SSW 12:25:22 15° S 12:29:20 10° SSE daylight
30 Jul - 14:10:35 10° SW 14:12:54 12° SSW 14:15:07 10° S daylight
31 Jul - 10:23:05 10° S 10:26:13 13° SSE 10:29:20 10° SE daylight
31 Jul - 12:09:31 10° SW 12:13:55 16° S 12:18:08 10° SSE daylight
31 Jul - 13:59:13 10° SW 14:01:28 11° SSW 14:03:39 10° S daylight
01 Aug - 10:11:08 10° SSW 10:14:45 14° SSE 10:18:21 10° SE daylight
01 Aug - 11:57:55 10° SW 12:02:28 16° S 12:06:50 10° SSE daylight
01 Aug - 13:47:59 10° SW 13:50:01 11° SSW 13:52:00 10° S daylight
02 Aug - 09:59:20 10° SSW 10:03:15 14° SSE 10:07:12 10° SE daylight
02 Aug - 11:46:23 10° SW 11:50:59 16° S 11:55:27 10° SSE daylight
02 Aug - 13:36:58 10° SSW 13:38:33 11° SSW 13:40:06 10° S daylight
